Regional Weather Roundup
Issued by NWS Goodland, KS

Home | Current Version | Previous Version | Graphics & Text | Print | Product List | Glossary On
Versions: 1 2 3 4 5 6 7 8 9 10 11 12 13 14 15 16 17 18 19 20 21 22 23 24 25 26 27 28 29 30 31 32 33 34 35 36 37 38 39 40 41 42 43 44 45 46 47 48 49 50
000
ASUS43 KGLD 282208
RWRGLD

GOODLAND FORECAST AREA HOURLY WEATHER ROUNDUP
NATIONAL WEATHER SERVICE GOODLAND KS
400 PM MDT FRI AUG 28 2015

...OFFICIAL OBSERVATIONS...

CITY           SKY/WX    TMP DP  RH WIND       PRES   REMARKS
GOODLAND KS    SUNNY     91  41  17 N18G25    30.04S
HILL CITY KS   SUNNY     89  61  38 N16       29.95S
IMPERIAL NEB   SUNNY     89  53  29 N9        30.03S
MCCOOK NEB     SUNNY     87  59  38 N14       29.99S
AKRON CO       SUNNY     86  36  16 N14G29    30.14F
BURLINGTON CO  SUNNY     87  44  22 N14G24    30.09S
LIMON CO       SUNNY     81  44  27 N14G23    30.20F
$$

...UNOFFICIAL OBSERVATIONS...

CITY           SKY/WX    TMP DP  RH WIND       PRES   REMARKS
COLBY KS       SUNNY     91  57  31 N13G20    30.02S
GOVE KS          N/A     90  32  12 MISG        N/A
LENORA KS        N/A     86  32  14 MISG        N/A
NORTON KS      MOSUNNY   82  55  39 N15G23    29.96S
SHARON SPRINGS   N/A     90  53  28 NW12G18     N/A
TRENTON NEB      N/A     85  32  15 N13         N/A
YUMA CO          N/A     88  44  21 NW7G14      N/A
$$



USA.gov is the U.S. government's official web portal to all federal, state and local government web resources and services.